Bolton Field, OH

11:46 AM EDT on October 23, 2017 (GMT -0400)
Bolton

Weather History for KTZR - December, 2013

Change the Weather History Date:

Tuesday, December 3, 2013

  Actual Average Record
Temperature  
Mean Temperature 42 °F -  
Max Temperature 51 °F 44 °F 66 °F (1998)
Min Temperature 33 °F 31 °F 19 °F (2002)
Degree Days  
Heating Degree Days 23    
Moisture  
Dew Point 40 °F    
Average Humidity 94    
Maximum Humidity 100    
Minimum Humidity 76    
Precipitation  
Precipitation 0.01 in - - ()
Sea Level Pressure  
Sea Level Pressure 29.85 in    
Wind  
Wind Speed 3 mph (ESE)    
Max Wind Speed 7 mph    
Max Gust Speed -    
Visibility 5 miles    
Events Rain    
Averages and records for this station are not official NWS values.
T = Trace of Precipitation, MM = Missing Value Source: NWS Daily Summary

Daily Weather History Graph

Daily Weather History Graph

Search for Another Location

Airport or City:

Trip Planner

Search our weather history database for the weather conditions in past years. The results will help you decide how hot, cold, wet, or windy it might be!

Date:

Astronomy

Dec. 03, 2013 Rise Set
Actual Time 7:37 AM EST 5:07 PM EST
Civil Twilight 7:07 AM EST 5:37 PM EST
Nautical Twilight 6:33 AM EST 6:11 PM EST
Astronomical Twilight 6:00 AM EST 6:44 PM EST
Moon 8:05 AM EST (12/3) 6:10 PM EST (12/3)
Length of Visible Light 10h 30m
Length of Day
9h 30m
New Moon, 1% of the Moon is Illuminated
Dec 3
New Moon
Dec 9
First Quarter
Dec 17
Full
Dec 25
Last Quarter
Jan 1
New

Hourly Weather History & Observations

Time (EST) Temp. Windchill Dew Point Humidity Pressure Visibility Wind Dir Wind Speed Gust Speed Precip Events Conditions
12:15 AM 37.6 °F 35.1 °F 37.4 °F 99% 29.85 in 2.0 mi NE 3.5 mph - N/A   Drizzle
12:35 AM 37.6 °F 34.0 °F 37.4 °F 99% 29.84 in 1.8 mi ENE 4.6 mph - 0.01 in   Drizzle
12:55 AM 37.6 °F 35.1 °F 37.4 °F 99% 29.84 in 1.8 mi ENE 3.5 mph - 0.01 in   Overcast
1:15 AM 37.6 °F 35.1 °F 37.4 °F 99% 29.84 in 1.8 mi ENE 3.5 mph - N/A   Overcast
1:35 AM 37.4 °F 34.9 °F 37.4 °F 100% 29.84 in 1.8 mi ENE 3.5 mph - N/A   Overcast
1:55 AM 37.4 °F 33.8 °F 37.4 °F 100% 29.83 in 1.8 mi ENE 4.6 mph - N/A   Overcast
2:15 AM 37.4 °F 34.9 °F 37.4 °F 100% 29.83 in 1.8 mi ENE 3.5 mph - N/A   Overcast
2:35 AM 37.6 °F 34.0 °F 37.4 °F 99% 29.84 in 2.0 mi ENE 4.6 mph - N/A   Overcast
2:55 AM 37.6 °F - 37.4 °F 99% 29.84 in 2.0 mi Calm Calm - N/A   Overcast
3:15 AM 37.6 °F 35.1 °F 37.4 °F 99% 29.84 in 2.5 mi NE 3.5 mph - N/A   Light Drizzle
3:35 AM 37.6 °F 35.1 °F 37.4 °F 99% 29.84 in 2.0 mi NE 3.5 mph - N/A Rain Light Rain
3:55 AM 37.8 °F - 37.4 °F 99% 29.84 in 2.0 mi Calm Calm - N/A   Overcast
4:15 AM 37.6 °F 34.0 °F 37.4 °F 99% 29.82 in 2.0 mi East 4.6 mph - N/A   Overcast
4:35 AM 37.4 °F - 36.9 °F 98% 29.84 in 2.0 mi Calm Calm - N/A   Overcast
4:55 AM 37.6 °F - 37.4 °F 99% 29.84 in 2.0 mi Calm Calm - N/A   Overcast
5:15 AM 37.4 °F - 37.0 °F 99% 29.84 in 2.0 mi Calm Calm - N/A   Overcast
5:35 AM 37.6 °F - 37.4 °F 99% 29.84 in 2.0 mi Calm Calm - N/A   Overcast
5:55 AM 37.2 °F 33.6 °F 36.5 °F 97% 29.85 in 2.5 mi ENE 4.6 mph - N/A   Mostly Cloudy
6:15 AM 36.0 °F 33.3 °F 35.4 °F 98% 29.85 in 2.5 mi ENE 3.5 mph - N/A   Scattered Clouds
7:15 AM 33.8 °F 28.6 °F 33.8 °F 100% 29.84 in 1.8 mi East 5.8 mph - N/A   Overcast
7:55 AM 33.8 °F 29.6 °F 33.8 °F 100% 29.85 in 1.0 mi ESE 4.6 mph - N/A   Unknown
8:55 AM 35.6 °F - 35.6 °F 100% 29.87 in 1.2 mi Calm Calm - N/A   Unknown
9:50 AM 37.4 °F 33.8 °F 37.4 °F 100% 29.88 in 2.0 mi ESE 4.6 mph - N/A   Scattered Clouds
10:15 AM 41.0 °F 38.0 °F 39.2 °F 93% 29.87 in 3.0 mi ESE 4.6 mph - N/A   Clear
10:50 AM 42.8 °F 39.3 °F 39.2 °F 87% 29.88 in 4.0 mi SE 5.8 mph - N/A   Mostly Cloudy
11:50 AM - - - N/A% 29.88 in 10.0 mi South 6.9 mph - N/A   Clear
12:47 PM 48.2 °F - 44.6 °F 87% 29.86 in 7.0 mi Calm Calm - N/A   Scattered Clouds
1:50 PM 51.8 °F - 44.6 °F 76% 29.85 in 10.0 mi South 3.5 mph - N/A   Mostly Cloudy
2:25 PM 51.8 °F - 44.6 °F 76% 29.84 in 10.0 mi SE 3.5 mph - N/A   Scattered Clouds
2:47 PM 51.8 °F - 44.6 °F 76% 29.83 in 10.0 mi SSE 4.6 mph - N/A   Clear
3:57 PM 50.0 °F - 44.6 °F 82% 29.82 in 7.0 mi SE 4.6 mph - N/A   Clear
5:50 PM 48.2 °F - 44.6 °F 87% 29.84 in 7.0 mi South 3.5 mph - N/A   Clear
6:02 PM 46.4 °F - 42.8 °F 87% 29.86 in 10.0 mi Calm Calm - N/A   Mostly Cloudy
6:35 PM 43.3 °F - 42.1 °F 95% 29.85 in 7.0 mi Calm Calm - N/A   Overcast
6:50 PM 42.8 °F - 42.8 °F 100% 29.85 in 7.0 mi Calm Calm - N/A   Overcast
6:55 PM 43.0 °F - 42.1 °F 97% 29.85 in 7.0 mi Calm Calm - N/A   Overcast
7:15 PM 44.1 °F - 42.8 °F 95% 29.85 in 7.0 mi Calm Calm - N/A   Overcast
7:35 PM 44.1 °F 42.5 °F 42.8 °F 95% 29.85 in 7.0 mi East 3.5 mph - N/A   Overcast
7:55 PM 44.4 °F 42.0 °F 42.8 °F 94% 29.84 in 7.0 mi ESE 4.6 mph - N/A   Mostly Cloudy
8:15 PM 45.3 °F 41.6 °F 43.2 °F 92% 29.84 in 7.0 mi ESE 6.9 mph - N/A   Scattered Clouds
8:35 PM 46.6 °F - 43.3 °F 88% 29.84 in 10.0 mi ESE 5.8 mph - N/A   Clear
8:55 PM 46.4 °F 42.9 °F 43.2 °F 88% 29.83 in 10.0 mi SE 6.9 mph - N/A   Clear
9:15 PM 45.7 °F 43.4 °F 42.8 °F 90% 29.84 in 10.0 mi SE 4.6 mph - N/A   Clear
9:35 PM 44.6 °F 42.2 °F 42.1 °F 91% 29.85 in 10.0 mi SSE 4.6 mph - N/A   Clear
9:55 PM 44.1 °F 42.5 °F 42.1 °F 93% 29.85 in 10.0 mi SSE 3.5 mph - N/A   Clear
10:15 PM 43.7 °F 42.1 °F 41.9 °F 93% 29.85 in 10.0 mi SE 3.5 mph - N/A   Clear
10:35 PM 43.3 °F 39.9 °F 41.9 °F 95% 29.84 in 5.0 mi ESE 5.8 mph - N/A   Scattered Clouds
10:55 PM 44.4 °F 41.2 °F 42.4 °F 93% 29.84 in 7.0 mi SE 5.8 mph - N/A   Mostly Cloudy
11:15 PM 45.1 °F 43.7 °F 43.2 °F 93% 29.84 in 7.0 mi SE 3.5 mph - N/A   Overcast
11:35 PM 45.0 °F - 43.2 °F 93% 29.86 in 7.0 mi Calm Calm - N/A   Overcast
11:55 PM 45.1 °F - 43.2 °F 93% 29.87 in 7.0 mi Calm Calm - N/A   Overcast